Location: Cz?stochówka
(50.8142°N, 19.0915°E)
Time: 08:52:00
(UTC+00:00)

Cosmos 1943 Rocket - Pass Details

Date: 13 January 2026
Orbit: 811 x 842 km, 71.0° (Epoch: 17 February)

Event Time Altitude Azimuth Distance (km) Brightness Sun altitude
Rises 04:17:01 0° 183° (S) 3,325 5.4 -22.0°
Reaches altitude 10° 04:19:33 10° 176° (S) 2,395 4.7 -21.6°
Maximum altitude 04:24:36 40° 109° (ESE) 1,187 3.5 -20.8°
Drops below altitude 10° 04:29:42 10° 41° (NE) 2,408 5.0 -20.0°
Sets 04:32:15 0° 34° (NE) 3,346 5.6 -19.6°
